This demonstration page uses our WeatherBlox Daily Observations layout. Learn more.

Left ArrowRight Arrow

38.83388, -104.82136

Hourly Observations for January 16, 2022

Temp ( °F °C ) Dew Point ( °F °C ) Humidity (%) Winds ( mph kmh ) Pressure ( in mb ) Visibility ( mi km ) Precip ( " mm )
12:54 am 00:54 Mostly Cloudy 38 3.3 6 -14.4 26 26 NNW 9 15 30.08 1019 10 16 0.00 0.00
1:54 am 01:54 Mostly Cloudy 38 3.3 5 -15 25 25 N 15 24 30.09 1019 10 16 0.00 0.00
2:54 am 02:54 Partly Cloudy 48 8.9 -4 -20 11 11 WNW 14 22 30.01 1016 10 16 0.00 0.00
3:54 am 03:54 Mostly Clear 46 7.8 -5 -20.6 11 11 NW 8 13 30.00 1016 10 16 0.00 0.00
4:54 am 04:54 Partly Cloudy 41 5 -1 -18.3 17 17 N 14 22 30.04 1017 10 16 0.00 0.00
5:54 am 05:54 Partly Cloudy 36 2.2 1 -17.2 22 22 N 14 22 30.09 1019 10 16 0.00 0.00
6:54 am 06:54 Mostly Clear 38 3.3 0 -17.8 20 20 NNW 7 11 30.12 1020 10 16 0.00 0.00
7:54 am 07:54 Mostly Cloudy 38 3.3 0 -17.8 20 20 NNW 5 7 30.18 1022 10 16 0.00 0.00
8:54 am 08:54 Mostly Cloudy 43 6.1 5 -15 21 21 NNE 6 9 30.16 1022 10 16 0.00 0.00
9:54 am 09:54 Partly Cloudy 52 11.1 -4 -20 9 9 SW 3 6 30.12 1020 10 16 0.00 0.00
10:54 am 10:54 Partly Cloudy 54 12.2 -1 -18.3 10 10 WSW 5 7 30.06 1018 10 16 0.00 0.00
11:54 am 11:54 Partly Cloudy 56 13.3 -9 -22.8 6 6 SE 8 13 30.03 1017 10 16 0.00 0.00
12:54 pm 12:54 Partly Cloudy 57 13.9 -8 -22.2 6 6 S 10 17 30.00 1016 10 16 0.00 0.00
1:54 pm 13:54 Mostly Cloudy 56 13.3 -5 -20.6 8 8 SSW 6 9 30.01 1016 10 16 0.00 0.00
2:54 pm 14:54 Mostly Cloudy 52 11.1 -4 -20 9 9 S 12 19 29.99 1016 10 16 0.00 0.00
3:54 pm 15:54 Partly Cloudy 49 9.4 0 -17.8 13 13 SSE 8 13 30.02 1017 10 16 0.00 0.00
4:54 pm 16:54 Mostly Sunny 45 7.2 1 -17.2 16 16 SSE 8 13 30.07 1018 10 16 0.00 0.00
5:54 pm 17:54 Mostly Clear 38 3.3 4 -15.6 24 24 NNE 6 9 30.16 1021 10 16 0.00 0.00
6:54 pm 18:54 Mostly Clear 33 0.6 10 -12.2 38 38 NNE 9 15 30.19 1022 10 16 0.00 0.00
7:54 pm 19:54 Mostly Clear 30 -1.1 12 -11.1 47 47 NE 9 15 30.21 1023 10 16 0.00 0.00
8:54 pm 20:54 Clear 31 -0.6 15 -9.4 52 52 Calm 30.19 1022 10 16 0.00 0.00
9:54 pm 21:54 Clear 32 0 15 -9.4 50 50 SE 3 6 30.14 1021 10 16 0.00 0.00
10:54 pm 22:54 Clear 28 -2.2 14 -10 56 56 E 8 13 30.14 1021 10 16 0.00 0.00
11:54 pm 23:54 Clear 31 -0.6 12 -11.1 45 45 SE 8 13 30.09 1019 10 16 0.00 0.00

Powered by AerisWeather